RH
84 85 84 85 85 84 86 86 83 84 85 88 94 94 93 91 91 91 90 85 86 89 89 92 86 96 91 85 83 54 56 60 73 84 68 76 85 70 62 54 45 46 59 62 66 66 68
85 87 86 85 87 86 87 88 88 88 88 92 94 94 94 94 92 87 90 90 91 90 91 94 92 98 89 94 61 58 58 65 72 81 72 68 73 67 55 49 46 49 66 69 64 65 65
87 88 87 87 88 88 86 88 89 90 88 89 97 96 88 88 88 92 92 97 97 94 93 94 92 97 94 82 58 61 59 60 67 78 80 66 71 68 53 55 60 66 69 67 69 68 69
88 88 88 87 88 89 89 89 91 91 91 92 94 91 94 97 93 96 98 99 96 97 99 99 95 97 95 58 60 59 59 62 72 79 69 62 70 78 54 56 59 69 67 75 69 71 70
89 88 89 89 90 89 89 90 92 92 92 94 97 96 98 94 97 86 87 87 89 98 98 99 98 93 91 60 62 53 52 74 80 82 75 67 61 76 57 65 72 69 82 76 78 70 75
90 90 90 90 90 90 91 91 92 92 93 95 99 98 99 98 81 80 78 84 89 94 96 99 94 93 67 59 45 53 56 73 80 75 65 64 70 80 63 65 81 83 74 72 73 80 76
90 90 90 90 91 91 91 92 92 93 94 95 97 93 87 79 78 74 75 78 77 87 94 83 75 75 59 52 53 58 64 67 59 66 83 75 77 81 65 59 58 65 69 66 62 77 81
90 89 89 90 90 91 92 93 93 94 94 95 96 73 52 69 70 70 77 88 84 84 92 70 74 77 69 61 63 59 61 73 73 83 78 81 90 68 65 62 58 63 72 72 57 78 80
90 90 89 89 90 90 91 92 92 93 94 96 96 76 58 50 52 67 79 83 77 77 87 74 69 66 68 59 66 66 67 70 82 89 90 87 70 68 66 69 72 68 70 68 61 87 78
91 88 89 89 90 91 91 91 92 93 95 96 96 91 65 60 63 74 75 73 69 82 98 65 80 70 64 59 71 54 63 67 78 90 85 89 73 73 75 74 70 82 64 58 74 84 87
90 89 89 91 89 90 90 92 92 93 95 96 96 94 68 76 77 80 74 69 71 82 63 61 78 56 63 67 58 61 66 71 82 82 80 78 80 77 81 73 64 69 58 65 78 84 74
89 89 91 91 90 89 90 91 92 93 94 96 94 84 80 80 84 67 74 66 80 87 74 84 68 79 81 71 67 70 70 69 68 74 77 79 64 64 66 59 59 54 60 65 71 81 91
90 90 86 88 88 89 90 91 92 93 94 92 46 22 73 80 74 78 72 81 81 87 44 71 76 80 81 82 84 80 93 96 91 94 94 74 72 60 48 64 59 62 74 96 97 96 82
88 88 87 86 90 89 90 90 92 93 94 78 14 21 50 55 73 76 83 83 92 40 63 56 57 69 88 72 77 82 90 96 90 81 99 95 86 67 55 60 70 68 75 85 85 78 68
89 87 88 86 86 87 89 90 92 92 94 83 22 36 78 68 66 77 87 98 66 59 60 64 53 63 63 62 69 78 93 90 78 88 98 100 95 61 56 46 51 72 92 69 84 62 73
89 86 85 86 86 86 89 90 90 92 91 76 41 72 70 72 75 86 94 78 68 57 55 55 66 58 67 66 73 86 93 78 78 81 82 99 99 87 71 56 52 55 66 98 98 94 94
87 86 86 88 86 88 87 90 91 92 70 16 59 62 69 79 85 92 97 88 67 50 50 58 64 68 68 69 77 93 81 74 82 89 85 98 100 84 81 78 81 70 80 93 99 98 92
87 84 81 81 86 87 88 91 90 91 84 30 54 28 69 85 88 95 97 74 57 55 50 56 56 63 68 62 80 90 89 78 77 82 96 88 99 96 77 62 89 96 100 100 97 86 93
88 85 84 86 86 87 88 90 90 91 84 80 55 64 61 76 92 91 77 62 46 56 56 54 56 59 54 64 81 74 77 79 82 90 98 100 98 97 84 87 93 99 100 100 99 98 96
92 90 85 86 86 86 88 89 91 89 76 64 70 30 48 87 86 78 74 58 48 45 56 56 60 64 62 68 67 82 74 84 86 85 88 95 95 94 89 89 87 82 89 93 98 96 94
88 88 86 85 87 86 89 88 87 87 44 56 63 43 56 45 31 32 29 37 40 41 42 58 57 56 57 81 74 79 67 58 74 79 87 94 95 92 83 83 88 89 91 85 85 79 91
81 90 85 86 87 86 84 84 85 87 42 49 64 75 75 53 38 35 32 27 34 45 49 46 53 43 46 52 56 70 66 74 64 82 89 95 97 88 98 71 87 88 80 83 77 61 85
82 87 92 88 86 84 83 82 85 87 56 70 76 72 78 54 46 37 42 43 48 47 40 44 44 44 41 43 55 54 65 73 75 79 96 100 100 100 81 75 76 79 78 46 48 48 71
82 94 92 86 85 82 79 81 84 82 77 78 81 84 81 49 47 43 50 49 49 46 52 43 42 46 44 46 48 50 57 58 56 63 62 90 99 97 92 82 95 57 93 93 94 88 91
83 93 88 83 84 85 82 80 75 78 81 74 84 77 93 78 67 53 63 54 54 47 51 44 47 48 49 50 54 57 54 55 61 59 65 72 83 93 95 98 75 55 65 87 96 81 100
88 88 80 86 84 84 82 82 81 81 79 78 84 79 84 96 68 63 68 60 69 70 63 47 45 47 50 55 46 89 81 55 62 55 81 80 83 84 100 100 100 64 100 98 96 100 95
93 77 77 86 87 90 92 91 83 82 80 82 86 91 81 96 83 64 75 78 67 69 76 65 69 60 59 62 75 94 89 59 74 81 74 90 98 95 92 94 88 80 95 97 92 78 96
90 81 82 83 88 91 93 84 89 83 81 83 86 94 95 95 89 67 60 70 72 76 92 73 72 74 76 92 94 97 97 96 97 89 94 96 96 97 98 96 94 94 96 93 89 96 100
88 89 85 86 86 87 94 96 93 86 81 83 86 90 94 96 88 78 69 67 63 62 76 79 78 79 97 97 94 98 99 98 96 98 77 98 93 96 94 94 96 92 94 89 94 97 98
Wind_Speed
12 13 14 15 15 16 17 18 19 19 18 18 17 17 16 16 15 13 13 13 12 10 9 7 5 9 2 2 6 1 1 2 10 12 13 4 5 5 6 7 6 5 4 4 3 3 6
13 14 14 15 16 16 18 19 19 19 19 19 18 18 18 17 15 13 12 12 12 11 9 6 4 4 2 4 4 2 3 3 11 17 13 9 6 6 5 3 8 4 6 5 2 2 3
13 14 15 16 16 17 18 18 19 19 20 19 20 20 19 17 15 11 10 10 9 8 6 7 5 2 3 10 5 9 4 3 10 21 5 11 2 3 3 3 4 6 6 2 3 4 2
13 14 15 16 17 18 19 20 20 21 20 20 21 20 19 17 16 12 9 9 6 6 7 6 4 2 5 5 8 11 6 4 7 16 6 9 2 1 0 6 4 5 3 4 4 7 2
13 14 15 16 17 18 19 20 21 21 22 21 22 22 21 18 15 10 9 6 3 4 4 5 3 3 7 6 4 3 6 4 8 8 14 6 7 4 1 5 3 1 4 4 2 7 5
13 14 16 17 18 18 19 20 21 21 22 22 22 21 19 16 11 12 10 2 2 2 5 5 3 1 6 2 2 1 5 11 3 6 4 4 3 4 2 4 9 4 3 4 6 7 3
12 14 15 17 18 19 19 20 21 22 22 23 22 20 17 12 9 12 10 2 4 3 5 6 4 3 1 3 2 2 4 8 4 2 5 4 7 12 8 6 4 7 4 5 2 7 5
11 13 15 17 18 19 20 21 22 23 23 24 24 19 13 10 10 11 5 3 2 3 8 9 11 8 11 7 2 3 7 5 4 5 3 3 14 10 9 7 6 6 7 7 3 5 6
10 12 15 16 18 19 20 21 22 22 22 23 23 20 14 12 9 4 4 2 5 4 4 6 5 5 5 7 4 5 9 5 4 6 6 5 4 9 7 5 7 4 8 5 5 3 2
9 12 13 16 18 20 21 22 23 23 23 23 23 21 15 14 1 3 1 5 7 5 4 4 4 4 5 6 4 7 12 5 4 9 6 6 5 8 5 9 8 13 9 8 7 5 6
9 11 14 15 18 20 21 22 23 24 25 25 23 22 16 7 7 2 2 8 5 0 5 4 2 3 4 6 1 2 4 2 5 5 5 7 6 6 10 13 9 10 8 10 6 7 2
9 11 14 15 17 19 21 23 23 25 25 26 25 22 15 5 6 5 5 7 1 0 7 2 2 3 4 2 2 1 2 2 3 3 4 6 3 6 11 7 13 5 3 3 2 4 12
8 10 13 15 18 19 21 23 24 26 27 28 27 17 9 6 2 1 6 1 1 3 2 2 3 3 3 5 4 6 5 4 5 4 8 3 11 5 5 4 5 7 6 6 5 6 11
8 10 13 15 18 20 22 25 26 28 29 30 23 11 6 10 1 3 0 1 4 1 3 3 3 3 5 5 6 5 3 5 6 4 2 5 6 14 9 19 10 14 17 7 8 9 10
7 10 13 15 18 21 23 26 28 30 32 35 18 6 4 1 8 4 2 2 4 3 2 5 5 2 3 2 3 2 5 4 5 11 7 4 7 2 6 16 15 9 11 23 10 9 3
7 10 12 15 17 20 23 26 29 30 32 29 16 6 3 3 6 4 2 5 4 3 2 2 2 2 3 4 4 2 2 3 2 1 4 2 6 2 5 2 8 19 3 5 7 8 9
5 9 11 14 16 19 22 26 29 31 32 17 6 3 0 3 5 2 3 5 4 4 1 2 2 3 3 3 3 3 4 3 1 2 2 3 3 3 2 5 6 5 14 8 3 4 5
5 7 10 13 16 18 21 24 28 31 32 16 5 3 1 4 1 1 2 3 3 2 0 3 2 6 5 4 3 4 5 4 1 2 1 2 2 5 9 7 6 5 5 5 6 8 5
4 6 9 12 16 18 21 24 27 28 25 10 3 3 1 1 2 2 4 5 3 3 4 1 4 2 1 3 3 3 3 2 3 2 2 2 2 3 6 0 2 1 2 1 3 3 4
4 7 9 12 15 18 20 24 27 28 22 7 2 3 4 3 1 2 3 4 3 3 3 5 4 0 2 3 4 3 2 3 2 1 3 3 3 7 8 7 1 10 4 2 2 4 7
3 5 7 10 13 16 19 23 26 29 19 4 3 2 1 3 2 4 2 5 4 6 5 4 4 3 5 2 4 3 2 5 2 1 0 2 5 5 10 10 9 11 13 14 6 9 9
2 3 7 8 11 13 17 22 25 29 19 6 2 3 4 3 4 4 4 3 4 5 5 6 5 10 5 3 3 4 1 2 5 3 1 1 4 2 6 9 10 15 8 8 12 13 14
2 3 4 7 10 13 15 18 21 24 20 7 4 1 2 4 4 2 1 3 4 4 1 3 2 4 8 7 3 6 6 6 5 4 4 3 3 2 10 3 5 6 8 15 8 9 7
1 2 4 8 9 11 13 15 16 18 20 7 4 2 1 3 2 2 3 2 3 2 5 8 6 4 1 5 6 8 10 13 13 16 12 4 2 1 7 1 10 6 1 2 4 8 6
2 1 3 6 8 9 11 13 14 15 14 16 5 3 1 3 2 3 5 2 6 4 3 3 1 3 5 4 3 5 3 2 5 10 8 11 2 2 2 5 6 9 4 2 4 5 2
5 3 2 3 5 7 9 11 13 14 14 15 4 6 2 1 3 3 3 2 3 3 4 2 3 6 3 2 3 3 3 3 4 8 5 3 4 4 2 3 5 6 1 2 1 4 4
8 4 1 1 3 6 8 8 11 13 15 13 2 4 2 2 3 3 2 2 2 2 3 3 4 5 3 1 2 2 3 2 2 2 3 3 0 8 9 7 6 4 3 2 3 4 3
9 5 3 2 3 7 10 10 9 11 14 12 5 4 2 1 4 2 1 2 2 0 2 3 3 2 2 1 2 2 1 2 2 3 2 2 2 3 2 5 5 4 3 4 2 4 2
10 7 4 4 5 7 11 12 7 10 13 12 2 4 3 3 4 3 6 4 3 4 1 1 1 2 1 1 2 2 2 3 3 3 1 3 4 2 4 3 3 4 3 1 2 3 3
Wind_Direction
23 21 18 13 10 6 3 2 2 0 356 350 346 343 340 336 330 326 320 313 307 305 302 302 318 332 359 260 256 256 357 160 184 184 189 177 153 164 181 183 158 146 148 103 124 137 101
20 16 14 11 7 6 3 2 360 356 353 350 349 343 338 333 327 324 320 313 304 298 291 287 289 334 264 257 175 105 340 206 193 189 185 184 202 201 168 206 171 154 112 128 124 128 119
14 13 9 8 5 4 3 0 357 355 353 350 347 345 340 334 325 315 313 311 303 290 281 284 258 312 267 246 202 287 317 245 215 194 158 203 162 183 138 130 117 120 99 115 169 169 147
11 10 9 6 5 3 360 358 357 355 353 349 348 344 340 335 325 316 307 305 293 274 269 270 207 275 251 258 296 269 271 260 196 203 172 213 132 119 296 126 79 93 86 150 173 154 138
7 8 6 4 3 1 359 357 355 354 351 349 347 344 343 340 336 335 328 314 290 259 235 202 230 208 265 295 263 271 244 180 156 183 198 130 137 197 83 127 90 132 181 191 231 209 137
5 4 4 2 0 359 357 355 353 352 351 348 346 346 346 347 357 349 342 356 43 88 148 185 266 312 271 234 208 299 145 163 145 132 109 185 148 181 171 174 206 183 213 190 195 200 199
3 1 1 359 358 357 355 353 351 350 349 347 345 345 347 351 355 352 347 327 2 287 219 213 177 247 329 297 280 188 165 149 107 132 168 204 190 215 193 202 175 172 196 237 173 171 153
0 358 358 357 355 354 353 352 350 348 347 345 344 343 341 338 337 348 7 72 3 325 300 239 247 244 269 291 296 243 157 152 150 197 158 98 222 201 190 199 197 208 192 221 280 155 180
359 358 354 355 354 352 351 350 349 346 345 343 342 340 331 325 314 327 16 46 346 338 275 281 207 203 186 172 234 240 155 150 175 175 200 195 243 176 179 179 192 217 212 187 208 92 314
353 354 357 353 353 351 349 348 347 344 341 341 339 337 329 328 308 330 264 335 330 328 301 247 213 245 150 139 256 210 187 150 195 207 164 236 223 181 187 211 178 229 176 179 153 149 240
344 352 353 355 352 349 348 347 345 343 340 338 335 333 326 313 302 260 304 323 321 164 324 140 180 157 158 162 256 177 164 93 195 186 162 224 188 178 217 221 176 247 171 196 185 214 181
345 352 352 353 351 349 346 344 343 341 338 335 331 328 323 283 255 257 310 323 1 342 256 216 127 166 121 238 271 79 145 71 177 200 218 233 195 183 226 209 206 152 113 84 103 154 242
345 350 351 350 349 347 345 343 342 340 336 333 330 321 290 227 242 302 321 36 333 215 36 201 218 180 205 205 229 197 182 185 197 203 229 191 231 228 175 223 197 184 181 227 213 211 247
347 350 352 351 349 347 346 344 342 340 337 335 332 318 279 242 212 264 51 87 239 221 274 351 15 181 199 181 244 210 201 236 251 234 186 212 271 210 210 205 191 201 199 218 226 223 242
347 351 354 353 350 348 347 346 344 343 340 338 334 316 271 287 203 212 116 194 251 314 18 346 318 269 281 282 253 198 221 232 226 193 226 244 242 318 222 222 198 207 216 222 264 255 237
344 349 354 353 350 350 349 349 347 346 343 342 326 322 278 166 154 145 177 241 263 278 353 354 288 16 312 334 338 320 213 269 264 274 233 337 275 289 296 285 252 225 155 202 209 233 244
346 349 352 352 350 350 350 350 350 348 346 351 331 358 41 173 164 64 217 228 271 279 20 234 267 294 260 274 220 231 259 284 321 16 10 148 227 270 330 192 228 211 225 219 255 217 247
338 346 351 350 348 349 351 353 354 354 350 357 2 344 131 167 10 273 256 231 311 299 359 287 250 235 221 219 253 248 234 238 40 94 235 247 233 262 243 246 194 173 202 259 256 229 236
336 343 347 354 355 356 355 355 355 357 359 333 354 267 5 180 244 257 287 298 291 304 278 208 262 290 319 236 260 249 283 62 31 343 308 27 265 293 317 347 124 247 90 320 258 250 270
340 351 360 358 358 359 358 356 356 356 355 341 23 335 324 29 353 277 300 268 323 9 301 310 283 178 271 276 257 278 292 22 0 39 206 154 252 239 263 284 227 287 253 239 210 272 314
308 347 1 3 2 2 0 359 358 355 353 331 43 281 201 293 340 329 330 311 309 325 345 216 226 349 340 272 317 284 325 334 322 230 57 184 252 238 252 253 263 268 279 294 264 264 253
280 9 4 7 5 8 4 3 4 4 8 65 40 14 347 292 308 329 349 332 340 7 358 333 4 355 350 290 306 292 313 214 245 327 213 291 263 275 270 258 244 261 254 253 263 271 257
294 9 11 7 9 12 11 11 12 11 20 47 24 350 121 300 337 335 4 15 26 13 216 90 59 327 296 293 281 258 232 239 231 205 221 231 212 220 264 296 325 320 217 236 233 228 231
259 41 17 7 16 13 12 15 16 17 21 25 360 321 31 273 345 348 356 341 359 306 255 270 287 233 274 312 282 261 249 248 246 243 225 208 202 104 272 26 265 253 243 210 238 266 327
195 138 14 17 16 17 17 15 11 13 8 15 355 2 36 285 268 267 353 310 317 296 271 261 314 321 322 297 284 301 292 298 256 242 242 215 200 265 192 223 307 312 287 203 158 280 357
186 204 337 29 23 22 16 13 10 9 9 6 21 352 67 300 270 324 314 343 320 320 319 319 2 328 333 264 265 222 245 280 310 332 61 125 190 177 116 220 229 242 9 109 158 284 248
184 203 239 53 2 349 348 3 7 5 6 3 349 335 324 285 290 20 338 308 334 323 272 306 340 327 357 281 262 235 255 292 265 258 324 330 291 222 234 249 269 228 247 275 120 244 307
191 201 223 258 312 333 335 337 355 358 2 356 326 339 271 251 281 256 246 275 300 209 241 330 328 353 337 285 298 315 267 305 313 234 226 230 239 248 315 222 281 169 130 194 213 304 258
191 208 236 266 297 314 323 320 339 357 354 348 308 329 283 226 254 304 285 295 287 267 231 283 250 271 21 358 1 6 307 349 179 261 253 279 205 254 202 253 202 204 247 286 204 247 279